date_time,PM1,PM25,PM4,PM10
2018-05-17 14:00:00,2.4947211176470594,5.462024205882353,8.1329985,13.413329352941174
2018-05-17 15:00:00,2.0586277307692304,4.4035178942307684,6.273671365384614,9.098365644230768
2018-05-17 16:00:00,1.6524606486486484,3.269287702702702,4.5467347972972965,6.363176135135136
2018-05-17 17:00:00,1.7239120333333333,2.6928919666666657,3.516677383333334,4.621668633333333
2018-05-17 18:00:00,2.6564566166666665,3.414949783333333,4.1183209666666665,5.254629200000001
2018-05-17 19:00:00,3.4442084500000005,4.333962516666667,5.0754967499999974,6.415853816666667
2018-05-17 20:00:00,2.408553866666667,3.1772305666666667,3.8131731333333336,5.1341791
2018-05-17 21:00:00,2.3408172333333326,3.028573666666666,3.5886298333333335,4.591150333333333
2018-05-17 22:00:00,1.4979461999999992,2.1375341166666657,2.6832672500000005,3.5595348333333345
2018-05-17 23:00:00,1.4436575666666662,2.1615151333333333,2.771847516666666,3.8729815
2018-05-18 00:00:00,1.4399800999999997,2.1020452499999998,2.699504783333333,3.2403417833333337
2018-05-18 01:00:00,1.7485017999999999,2.369735416666667,2.954710783333334,3.5441458499999996
2018-05-18 02:00:00,1.2607939000000001,1.7714467499999997,2.219113616666667,3.0579702166666674
2018-05-18 03:00:00,1.2096003833333335,1.7642561500000002,2.2724428333333333,3.0765227999999993
2018-05-18 04:00:00,1.6430718333333334,2.4050060666666657,3.0511943999999995,3.9014576166666677
2018-05-18 05:00:00,1.8847177333333331,2.766044566666666,3.547063016666667,4.6427544
2018-05-18 06:00:00,2.0956987166666665,3.0499722,3.8710704166666674,4.801836683333333
2018-05-18 07:00:00,2.379873566666667,3.3084927000000004,4.090550316666667,4.846045483333333
2018-05-18 08:00:00,3.1240732166666674,4.186880449999999,5.075689583333332,6.1469894666666685
2018-05-18 09:00:00,3.4917614999999995,4.646369850000001,5.607960616666667,6.313823033333334
2018-05-18 10:00:00,3.4469639166666663,4.7710599,5.903652116666668,7.797116833333334
2018-05-18 11:00:00,3.8629907833333337,5.2751311833333325,6.314044633333333,8.776600333333334
2018-05-18 12:00:00,3.8769011999999985,5.1963148666666665,6.268748283333333,7.692055233333335
2018-05-18 13:00:00,4.1524295833333325,5.589702250000002,6.84587965,8.468563299999998
2018-05-18 14:00:00,4.006211949999999,5.383077400000001,6.5726734166666665,7.398987766666666
2018-05-18 15:00:00,4.504186633333336,5.89533535,7.046611200000003,8.149632783333336
2018-05-18 16:00:00,3.3812178333333334,4.736313966666668,5.888221450000001,6.666172466666665
2018-05-18 17:00:00,2.5995404,3.835323533333333,4.873479183333334,5.4209002
2018-05-18 18:00:00,2.7839464000000005,4.065412733333335,5.159773666666665,5.972492133333333
2018-05-18 19:00:00,3.573766566666668,4.965275583333334,6.106715950000001,7.104427666666668
2018-05-18 20:00:00,3.312306366666667,4.7945257833333335,6.125074966666665,7.369629133333332
2018-05-18 21:00:00,3.4946929333333325,5.224084283333334,6.711100149999998,8.844488149999998
2018-05-18 22:00:00,5.725556650000001,7.4312105833333355,8.938310283333331,10.725197683333334
2018-05-18 23:00:00,6.091414233333331,7.4820791166666645,8.626032466666668,9.770003866666672
2018-05-19 00:00:00,4.436869116666667,5.670999933333333,6.755150933333336,7.848307700000002
2018-05-19 01:00:00,4.362794733333334,5.458141066666665,6.366066700000003,7.22037838333333
2018-05-19 02:00:00,4.947795649999999,6.066807216666665,6.960596899999999,8.533031150000001
2018-05-19 03:00:00,4.8562618,5.792398933333332,6.561363816666668,7.29360345
2018-05-19 04:00:00,4.648558966666667,5.555799350000001,6.329827166666666,7.1129388333333345
2018-05-19 05:00:00,4.353088266666668,5.508345316666665,6.577993466666666,7.993881866666669
2018-05-19 06:00:00,4.194974383333333,5.545025300000001,6.775061400000001,8.570665150000002
2018-05-19 07:00:00,4.2176537666666665,6.04268131666667,7.734416983333333,11.836088266666662
2018-05-19 08:00:00,3.8009151833333332,5.048396566666668,6.187396466666667,7.71595785
2018-05-19 09:00:00,3.960898783333333,5.293227533333333,6.405945033333335,8.19178961666667
2018-05-19 10:00:00,3.6374690666666667,5.091591749999998,6.307172166666667,8.444722466666665
2018-05-19 11:00:00,3.871080833333335,6.108272266666669,8.432998799999998,11.605388066666668
2018-05-19 12:00:00,3.913820899999999,5.9932321,8.230103633333334,11.976435333333335
2018-05-19 13:00:00,3.1834479000000004,4.99773595,6.902099249999998,10.811694300000001
2018-05-19 14:00:00,2.545997516666666,3.7014138666666665,4.938787933333334,7.041917550000003
2018-05-19 15:00:00,2.44758325,3.586048416666666,4.761951100000001,6.926132466666668
2018-05-19 16:00:00,3.0579932166666666,4.758397400000001,6.555316199999998,9.553429399999999
2018-05-19 17:00:00,3.0913293166666658,5.296099416666668,7.602811916666666,11.937772599999999
2018-05-19 18:00:00,3.7264079000000003,5.6875606,7.520996383333335,11.797534233333332
2018-05-19 19:00:00,5.1558045666666645,6.711104099999997,8.2633536,10.985002683333333
2018-05-19 20:00:00,6.141096949999999,7.734476533333333,9.23901058333333,12.06174938333333
2018-05-19 21:00:00,4.8929894333333355,6.255632133333334,7.427269783333334,10.486127733333335
2018-05-19 22:00:00,3.275984916666667,4.409507283333331,5.464265666666667,7.320550766666667
2018-05-19 23:00:00,3.2747588333333346,4.222000533333335,5.0192652,6.499099416666664
2018-05-20 00:00:00,3.8767902833333343,4.818557716666668,5.583209066666667,6.599842966666668
2018-05-20 01:00:00,4.6203228166666666,5.698957516666667,6.550761366666666,7.6311132000000015
2018-05-20 02:00:00,4.33069465,5.414279033333332,6.244891633333334,6.79310535
2018-05-20 03:00:00,4.070985883333334,5.077709750000001,5.7902639,6.468229016666667
2018-05-20 04:00:00,3.800733400000001,4.656800033333335,5.262267233333333,5.546608916666667
2018-05-20 05:00:00,3.1989906500000003,3.8236508999999987,4.244538133333334,4.4113725499999985
2018-05-20 06:00:00,3.962733749999999,4.909635016666668,5.511974633333335,6.186867533333332
2018-05-20 07:00:00,4.2744027,5.353979016666667,6.016390616666666,6.794696849999999
2018-05-20 08:00:00,3.5893409833333347,4.501360783333334,5.081858816666665,5.456794383333334
2018-05-20 09:00:00,2.7949143499999995,3.4124408166666655,3.8514290999999994,3.946163766666667
2018-05-20 10:00:00,2.282204183333333,2.787599466666667,3.1422942333333332,3.4591836
2018-05-20 11:00:00,2.6045872833333323,3.153867266666667,3.5504993666666675,3.822946883333332
2018-05-20 12:00:00,2.568933899999999,3.113545216666666,3.5048281333333335,3.928275849999999
2018-05-20 13:00:00,2.3935768666666664,2.9077000166666664,3.3508582333333328,3.809611233333334
2018-05-20 14:00:00,2.4554260833333337,3.038959733333334,3.505241166666667,4.156276016666667
2018-05-20 15:00:00,6.627590166666668,7.851288683333332,9.0046436,10.604699499999999
2018-05-20 16:00:00,4.115741716666666,4.723690666666667,5.245639033333336,5.691022266666668
2018-05-20 17:00:00,3.4451941833333337,4.191142399999999,4.827406333333334,5.209770816666667
2018-05-20 18:00:00,7.6982976166666655,8.939083250000001,9.902752666666663,10.809446433333335
2018-05-20 19:00:00,6.5123370666666665,7.306780166666669,7.893218533333331,8.3807781
2018-05-20 20:00:00,0.9167180333333336,1.1468420999999995,1.3156766833333327,1.391384566666667
2018-05-20 21:00:00,1.1245785999999998,1.4469776166666661,1.6063159833333325,1.6213202999999996
2018-05-20 22:00:00,1.1583576833333333,2.0254557666666666,2.6732902999999997,2.7762154000000003
2018-05-20 23:00:00,2.083921266666667,3.1564161666666664,3.7623202833333336,3.955871700000001
2018-05-21 00:00:00,1.4560460999999996,1.9031541666666665,2.10533775,2.1425120166666662
2018-05-21 01:00:00,0.83330435,1.0006788666666664,1.0517175500000002,1.0595342000000003
2018-05-21 02:00:00,0.44575091666666655,0.8281738999999999,1.1265260666666668,1.1703204999999999
2018-05-21 03:00:00,0.4462348833333333,1.0172760333333337,1.5033916500000002,1.7341142666666667
2018-05-21 04:00:00,0.47915968333333336,1.166688616666667,1.785287616666667,1.8435325333333337
2018-05-21 05:00:00,0.4521707833333334,1.14757585,1.7760770666666663,1.9130642833333327
2018-05-21 06:00:00,0.6616187333333333,1.7445503833333333,2.878366216666666,3.2063933666666666
2018-05-21 07:00:00,0.8674425500000001,2.4702634166666666,4.203567933333333,4.636185366666665
2018-05-21 08:00:00,0.9770684833333333,2.731739550000001,4.57239595,5.047564216666667
2018-05-21 09:00:00,0.923894266666667,2.4780566,4.043317033333335,4.541016433333335
2018-05-21 10:00:00,1.0790925833333334,2.697822583333333,4.3350953,5.0398188333333325
2018-05-21 11:00:00,1.1625963166666664,2.985426066666667,4.946184483333336,6.010529133333333
2018-05-21 12:00:00,1.031413766666667,2.5321146666666663,4.206556400000001,5.551236283333334
2018-05-21 13:00:00,1.068921933333333,2.5643530333333344,4.155669366666667,5.351347033333335
2018-05-21 14:00:00,0.9860211500000002,2.2471144500000007,3.5457773166666664,4.192449750000001
2018-05-21 15:00:00,0.9853134500000003,2.3106532166666662,3.6305421166666654,4.719892783333334
2018-05-21 16:00:00,0.9794325666666668,2.3183312666666662,3.7205247333333347,4.702427099999999
2018-05-21 17:00:00,1.0349824666666667,2.4780379166666666,3.918408666666667,5.2076735
2018-05-21 18:00:00,1.0452650333333338,2.4577374500000007,3.891763033333333,5.214484650000001
2018-05-21 19:00:00,0.945463466666667,2.318389983333333,3.7523155666666668,5.019016916666668
2018-05-21 20:00:00,0.9003992166666668,2.076896883333333,3.309512666666667,3.956241516666667
2018-05-21 21:00:00,0.9275625166666663,2.119063533333334,3.4287436999999996,3.9698846999999997
2018-05-21 22:00:00,0.9924183499999999,2.2585723833333327,3.445149833333333,4.415224283333333
2018-05-21 23:00:00,0.9851417166666665,2.2631041166666663,3.56483815,4.1416471
2018-05-22 00:00:00,0.9565988999999998,2.212187383333334,3.545362283333333,4.118671083333335
2018-05-22 01:00:00,1.0640492166666666,2.38630475,3.6783427666666664,4.219798083333334
2018-05-22 02:00:00,1.0937266,2.4046381999999995,3.6580971833333327,4.321486500000001
2018-05-22 03:00:00,1.181253366666667,2.7028465833333337,4.240787033333333,4.877785416666668
2018-05-22 04:00:00,1.1220552333333333,2.654929966666666,4.130117116666665,5.001476766666666
2018-05-22 05:00:00,0.98225425,2.4398650833333333,3.9155944166666665,4.603827416666666
2018-05-22 06:00:00,0.905801716666667,2.4118282833333335,3.974269083333334,4.850251833333334
2018-05-22 07:00:00,0.8177992000000001,2.2934444166666674,3.84828575,4.995608683333332
2018-05-22 08:00:00,0.7542488833333333,2.2373517166666663,3.886429816666667,5.160190066666668
2018-05-22 09:00:00,0.6553311000000002,1.867174933333333,3.2315840166666656,4.153454666666667
2018-05-22 10:00:00,0.7657393833333331,2.211031166666667,3.810528583333333,5.030619216666667
2018-05-22 11:00:00,1.0100066500000002,2.5039707000000004,4.09864395,5.267799383333331
2018-05-22 12:00:00,1.4041942333333326,2.9953479166666663,4.647172616666666,6.060257216666667
2018-05-22 13:00:00,1.9174830666666667,3.6877714166666675,5.511333466666668,7.069399216666668
2018-05-22 14:00:00,1.9660052000000003,3.9158221166666674,5.955530816666665,8.068037550000001
2018-05-22 15:00:00,1.8625736833333328,4.350538149999999,7.095777233333333,9.587103816666671
2018-05-22 16:00:00,1.7673200333333339,3.4928666333333336,5.3329475166666676,7.563548533333337
2018-05-22 17:00:00,1.265897316666666,2.474921066666666,3.7646861000000014,5.585073366666666
2018-05-22 18:00:00,0.8649065333333332,1.6841302166666665,2.5553795833333335,3.66988985
2018-05-22 19:00:00,0.8084281000000001,1.4233162499999996,2.0395256333333336,2.828006016666667
2018-05-22 20:00:00,0.8486350333333336,1.6640485500000002,2.493559166666667,3.9806194666666674
2018-05-22 21:00:00,0.6693264,1.11018045,1.5920419166666666,1.9522762
2018-05-22 22:00:00,0.6235231333333335,1.1286227,1.6397135999999997,2.7447397000000007
2018-05-22 23:00:00,1.1172566166666669,1.5586929833333332,2.005656583333333,3.0705121
2018-05-23 00:00:00,3.082694116666667,4.1019394333333326,5.239086533333333,6.939535916666669
2018-05-23 01:00:00,2.1900656333333335,2.634506433333334,3.1121732500000006,3.717474183333333
2018-05-23 02:00:00,1.2667013833333332,1.6494527666666663,2.071561983333334,2.6566928833333323
2018-05-23 03:00:00,1.2078273000000004,1.5142827499999998,1.7709415333333334,2.4588238999999996
2018-05-23 04:00:00,1.7912520333333342,2.3872612666666675,2.9336481000000005,4.213941999999999
2018-05-23 05:00:00,2.736988633333333,3.7273859666666667,4.756527033333334,6.174742050000002
2018-05-23 06:00:00,3.633354483333334,4.539658716666666,5.377986266666667,6.594102500000003
2018-05-23 07:00:00,3.7069970166666666,4.6367231833333316,5.412399599999997,6.8049716
2018-05-23 08:00:00,4.471440266666667,5.516251000000001,6.349568833333336,7.857334283333333
2018-05-23 09:00:00,4.977624883333333,6.058260383333335,6.989584333333335,8.216291233333335
2018-05-23 10:00:00,5.7609855833333325,6.721551833333334,7.497045866666667,8.549520449999997
2018-05-23 11:00:00,5.728505433333336,6.801132766666666,7.655547166666666,8.364917133333332
2018-05-23 12:00:00,4.024663966666667,5.173932383333333,6.167616116666666,6.956904316666667
2018-05-23 13:00:00,3.347660833333332,4.429374066666665,5.356133783333334,6.1089584833333355
2018-05-23 14:00:00,3.188504633333333,4.272005316666667,5.176906816666667,6.272783616666667
2018-05-23 15:00:00,3.3979380166666657,4.510698750000001,5.483270549999999,6.3776424833333305
2018-05-23 16:00:00,3.2428728666666657,4.433022449999999,5.4425721000000005,6.488089333333333
2018-05-23 17:00:00,3.1466046166666657,4.447716716666666,5.723350166666665,7.6055777833333345
2018-05-23 18:00:00,3.524282283333334,4.962710099999999,6.263627383333334,7.934097633333336
2018-05-23 19:00:00,4.452943866666668,6.232148116666665,7.963442083333335,10.491789616666667
2018-05-23 20:00:00,4.909989716666668,6.8717966666666666,8.739805633333335,11.327735916666665
2018-05-23 21:00:00,6.115587716666665,7.5981548666666665,8.978217916666669,11.434530233333334
2018-05-23 22:00:00,6.043463233333333,6.902908116666667,7.681786300000001,9.623507049999997
2018-05-23 23:00:00,5.4770789,6.294213833333334,7.039911433333334,8.659239183333332
2018-05-24 00:00:00,4.743852066666666,5.457992633333333,6.063181599999997,7.183994583333331
2018-05-24 01:00:00,3.6753630500000005,4.361531916666667,5.046387900000001,6.058255383333334
2018-05-24 02:00:00,4.074484916666667,4.832629566666667,5.493077350000001,6.690676933333335
2018-05-24 03:00:00,3.7360606166666677,4.426719799999999,5.091463433333333,5.851706300000001
2018-05-24 04:00:00,4.375752633333334,5.247549066666667,6.058829500000001,7.650680000000002
2018-05-24 05:00:00,4.833150816666669,6.132427083333334,7.549369950000001,9.938820916666668
2018-05-24 06:00:00,6.285849266666667,7.898683666666662,9.389508599999994,12.73615065
2018-05-24 07:00:00,7.378289033333334,8.676605583333332,9.854623383333335,11.428611083333335
2018-05-24 08:00:00,7.900512900000002,9.136238483333335,10.202598066666669,11.867054300000001
2018-05-24 09:00:00,8.057964766666666,9.664668216666671,11.072229133333334,12.916909683333332
2018-05-24 10:00:00,7.719800333333329,9.449062366666668,11.000717983333336,13.24863568333333
2018-05-24 11:00:00,7.4827825,9.21851235,10.73839715,13.303503483333333
2018-05-24 12:00:00,7.837269816666665,9.618673933333332,11.152799616666668,13.575253983333333
2018-05-24 13:00:00,7.5685392166666645,9.738575099999998,11.710269666666665,14.703101833333335
2018-05-24 14:00:00,6.311910549999999,9.077047266666664,11.721091233333336,15.424483400000005
2018-05-24 15:00:00,5.443127116666667,8.173286449999999,10.76232416666667,14.449808083333332
2018-05-24 16:00:00,5.545154900000001,8.75571235,11.955179916666667,16.856693933333336
2018-05-24 17:00:00,5.5283813166666675,8.300120033333336,10.92658581666666,14.391357650000007
2018-05-24 18:00:00,5.627862666666667,7.921017066666666,10.064065066666668,12.941455033333332
2018-05-24 19:00:00,5.783135833333333,8.12909033333333,10.377090083333334,12.6862456
2018-05-24 20:00:00,6.48357075,8.618082466666669,10.619562133333336,12.308138416666663
2018-05-24 21:00:00,6.826580583333333,8.759534816666667,10.638628883333332,12.283498299999998
2018-05-24 22:00:00,7.2445482666666665,9.085842000000001,10.703227183333333,12.563635533333334
2018-05-24 23:00:00,7.574117299999998,9.229705083333334,10.786979883333334,11.659021999999998
2018-05-25 00:00:00,7.2473239833333345,8.9048494,10.428592333333334,11.832808916666666
2018-05-25 01:00:00,7.210810383333335,9.402474433333333,11.510070950000001,13.550297999999998
2018-05-25 02:00:00,7.309785500000001,9.572838633333333,11.75039701666667,13.803004633333334
2018-05-25 03:00:00,7.521817833333334,9.619310033333333,11.440718599999999,12.9425843
2018-05-25 04:00:00,5.90915195,7.702630733333332,9.303825483333332,10.621200783333334
2018-05-25 05:00:00,3.6201920666666676,5.444283950000001,7.343010750000001,8.928972699999996
2018-05-25 06:00:00,2.7945184000000003,4.614445016666665,6.492868916666664,7.930246366666664
2018-05-25 07:00:00,2.8392718000000015,4.627532433333334,6.277601616666667,6.694731049999998
2018-05-25 08:00:00,3.1593775833333333,5.106215016666666,6.856903833333334,7.464758766666669
2018-05-25 09:00:00,2.6260363333333325,4.4711050000000006,6.189811300000001,7.01352406666667
2018-05-25 10:00:00,2.558073299999999,4.697382500000001,6.81688615,7.769589100000002
2018-05-25 11:00:00,2.767975116666665,5.010352733333334,7.127545899999998,8.593748133333333
2018-05-25 12:00:00,2.6693139000000006,4.858853833333331,6.883770133333333,8.284246116666665
2018-05-25 13:00:00,2.343548983333334,4.365337599999999,6.255302416666667,7.728675083333335
2018-05-25 14:00:00,2.2903566833333326,4.389457866666668,6.408524616666665,7.9933874833333345
2018-05-25 15:00:00,2.1499303,4.303209866666666,6.296981966666667,7.473917366666668
2018-05-25 16:00:00,2.2623796333333335,4.834473049999999,7.309722966666668,9.555270083333335
2018-05-25 17:00:00,2.546075183333333,5.551831099999999,8.464969066666665,11.393510233333334
2018-05-25 18:00:00,2.5526690333333333,5.576943733333334,8.608427766666667,11.780444483333332
2018-05-25 19:00:00,2.5037699333333325,5.242225133333334,7.921903416666668,10.713815783333331
2018-05-25 20:00:00,3.066139083333334,6.082227766666666,9.063237300000003,11.632419800000001
2018-05-25 21:00:00,3.552804716666667,7.033740733333334,10.536420099999999,13.035207083333328
2018-05-25 22:00:00,3.652577916666667,6.755243033333333,9.670746783333334,11.481710533333336
2018-05-25 23:00:00,3.3681019666666674,6.627573383333332,9.762644933333329,11.01471443333333
2018-05-26 00:00:00,3.3172715833333326,6.81392815,9.948300233333333,10.882692766666668
2018-05-26 01:00:00,3.231532316666667,6.6168763,9.651579216666669,10.804228266666671
2018-05-26 02:00:00,3.8666689666666656,6.663119516666667,8.967488716666667,9.52239155
2018-05-26 03:00:00,3.6093105999999993,7.051221366666666,10.219047883333332,12.313074616666666
2018-05-26 04:00:00,3.8118889666666664,8.041381016666666,12.053426783333332,14.352118100000002
2018-05-26 05:00:00,5.069820016666668,10.675669399999999,15.721929516666668,18.3711537
2018-05-26 06:00:00,4.683230916666664,9.69319525,14.392963150000005,18.264490583333327
2018-05-26 07:00:00,4.517109466666666,9.020561850000002,13.486094949999993,17.985839916666666
2018-05-26 08:00:00,4.285172866666666,6.924841933333331,9.453299600000003,12.808798816666664
2018-05-26 09:00:00,4.0517911500000015,5.480854433333335,6.965518766666667,9.157745450000002
2018-05-26 10:00:00,4.397523699999999,5.867790666666666,7.384024666666667,8.963951433333332
2018-05-26 11:00:00,4.27466795,6.085422633333329,7.955564166666666,10.129737266666666
2018-05-26 12:00:00,4.360479250000001,6.364654683333334,8.443624766666668,11.101297616666663
2018-05-26 13:00:00,4.219283016666667,5.60187105,6.9870018499999995,9.355066766666669
2018-05-26 14:00:00,4.225527083333332,5.383631100000001,6.4955044833333355,8.757261133333333
2018-05-26 15:00:00,4.614140483333333,5.836098150000001,7.130285700000001,8.743924433333332
2018-05-26 16:00:00,5.292142100000001,6.987666999999998,8.704915583333335,11.247170750000002
2018-05-26 17:00:00,5.156835350000001,6.985129483333333,8.847226483333328,11.855695749999995
2018-05-26 18:00:00,4.1147455000000015,5.4921925000000025,6.845484833333332,9.305290133333335
2018-05-26 19:00:00,3.9360555333333336,5.198442666666666,6.378197783333335,7.8337863
2018-05-26 20:00:00,4.368173016666665,5.776297383333332,7.161558800000003,8.768404000000002
2018-05-26 21:00:00,4.3768539833333335,5.981005633333333,7.4811123666666655,9.318002449999996
2018-05-26 22:00:00,4.2372374000000015,5.9144034,7.485340550000001,9.609782649999998
2018-05-26 23:00:00,3.5644965500000008,5.168633366666668,6.8143135,8.351505716666667
2018-05-27 00:00:00,3.3013276333333326,4.787899733333335,6.313933399999999,7.611621033333336
2018-05-27 01:00:00,3.205624983333334,4.534727083333333,5.868161833333333,7.038170849999999
2018-05-27 02:00:00,3.2364668666666665,4.3951122,5.494289933333333,6.799237699999998
2018-05-27 03:00:00,3.776111333333333,5.262170716666668,6.646167216666666,7.543755149999999
2018-05-27 04:00:00,4.719404966666668,6.665864583333334,8.464128800000003,9.57784265
2018-05-27 05:00:00,5.353948849999999,7.599053483333336,9.430961483333334,10.723635166666666
2018-05-27 06:00:00,5.731165533333334,8.292024733333333,10.513100166666666,11.635217200000003
2018-05-27 07:00:00,5.898434233333332,8.426457749999999,10.528625683333335,12.346701233333336
2018-05-27 08:00:00,6.551071333333335,9.632697133333332,12.413023666666668,14.573439033333335
2018-05-27 09:00:00,5.738615500000001,7.845106700000002,9.638146016666663,10.744979783333338
2018-05-27 10:00:00,5.6851373999999995,7.716091199999999,9.607476549999998,11.12345255
2018-05-27 11:00:00,5.383325916666665,7.228850133333333,8.82837668333333,10.444684600000004
2018-05-27 12:00:00,5.102064583333331,6.7237523833333315,8.28411855,10.132759466666668
2018-05-27 13:00:00,4.977847700000001,6.432212016666668,7.797288900000002,9.81236685
2018-05-27 14:00:00,4.900234416666667,6.123349633333334,7.318878483333334,8.6449134
2018-05-27 15:00:00,4.729081366666668,6.051589216666665,7.4179478333333355,9.113660133333331
2018-05-27 16:00:00,4.958134433333332,6.261701599999999,7.507339833333332,9.130504266666668
2018-05-27 17:00:00,5.270188833333332,6.501117033333334,7.711101833333335,9.136542083333332
2018-05-27 18:00:00,5.092678333333334,6.476099216666667,7.8369768833333335,9.9181923
2018-05-27 19:00:00,5.48097145,7.096510533333333,8.577611983333336,11.323957933333334
2018-05-27 20:00:00,5.755473983333334,7.433652483333331,9.041194916666665,10.961795416666664
2018-05-27 21:00:00,8.549677333333335,10.302370566666669,11.804181816666668,14.39239573333333
2018-05-27 22:00:00,6.89602815,8.648649433333334,10.3722546,12.236997499999998
2018-05-27 23:00:00,5.6657381499999975,7.2833433166666675,8.842964933333333,10.600118833333333
2018-05-28 00:00:00,7.283440350000002,9.103443033333331,10.917947716666667,13.364219983333339
2018-05-28 01:00:00,6.019630700000002,7.500209833333333,8.8522638,11.024104599999998
2018-05-28 02:00:00,6.2319691666666674,7.800126633333334,9.238913066666667,11.453035466666668
2018-05-28 03:00:00,8.8809159,10.635347716666667,12.241223916666662,15.023556533333334
2018-05-28 04:00:00,5.690110083333334,7.193719883333332,8.546406783333333,10.410371216666666
2018-05-28 05:00:00,5.766582333333333,7.443456716666664,9.026176249999999,11.209157983333332
2018-05-28 06:00:00,5.8870412166666695,7.408836983333333,8.854222149999998,9.97318895
2018-05-28 07:00:00,5.873868183333333,7.595748883333333,9.199882666666667,11.323006950000002
2018-05-28 08:00:00,5.818577300000001,7.360876966666666,8.787651349999997,10.667907149999998
2018-05-28 09:00:00,5.905930600000001,7.5003564,8.98454095,11.187552700000001